Location: East Guldeford
(50.9500°N, 0.7500°E)
Time: 09:19:33
(UTC+00:00)

NOSS 3-3 (C) - Pass Details

Date: 12 May 2021
Orbit: 806 x 1406 km, 63.4° (Epoch: 14 June)

Event Time Altitude Azimuth Distance (km) Brightness Sun altitude
Rises 20:36:14 0° 212° (SSW) 3,389 6.7 -8.4°
Reaches altitude 10° 20:38:35 10° 209° (SSW) 2,503 6.0 -8.6°
Maximum altitude 20:44:19 69° 128° (SE) 1,008 3.9 -9.3°
Drops below altitude 10° 20:50:55 10° 47° (NE) 2,872 6.5 -10.0°
Sets 20:53:46 0° 45° (NE) 3,925 7.2 -10.3°
